Wind_Speed
16 17 21 24 24 26 29 33 35 34 32 31 30 30 30 28 26 24 23 23 23 22 22 21 20 19 19 20 19 19 20 20 21 22 22 21 20 19 19 19 18 17 17 17 16 15 15 14 14 12 12 15 16 17 18 18 16 15 16 16 17 18 18
17 16 21 26 24 24 27 32 38 37 34 33 30 29 29 28 27 27 25 23 23 22 21 20 20 19 19 21 20 20 20 20 21 21 21 20 20 18 18 18 18 18 18 16 16 15 15 15 14 12 12 14 15 16 19 19 16 15 16 18 19 19 19
15 14 18 24 24 25 27 30 35 36 35 34 32 30 30 29 28 28 27 25 24 23 21 21 20 19 20 21 21 20 21 21 21 21 21 20 19 18 17 17 16 17 18 18 17 16 15 16 16 15 16 15 14 14 17 18 16 14 16 18 17 17 17
13 14 16 19 21 23 25 27 30 33 33 33 33 33 32 30 27 25 25 25 24 24 22 22 21 21 21 21 21 21 21 22 21 20 20 20 19 18 18 18 17 17 18 19 19 19 18 17 15 15 17 17 15 15 16 17 16 15 15 15 14 14 15
11 15 17 18 19 21 25 28 28 28 28 29 30 32 30 27 24 23 23 24 24 24 22 21 22 23 23 23 22 21 20 20 20 20 20 19 18 18 17 18 18 18 19 19 19 20 19 18 16 16 17 17 17 18 17 16 15 15 16 15 14 14 14
8 14 20 20 19 21 25 28 27 26 27 27 28 31 31 27 24 24 25 24 24 24 23 23 24 24 23 23 22 20 18 17 18 19 18 17 16 16 16 16 18 18 19 19 19 19 18 19 21 20 19 18 18 17 17 17 15 15 16 15 14 13 13
8 15 21 20 19 22 24 24 23 24 25 24 25 29 31 30 28 27 24 20 20 23 24 25 25 23 23 22 20 19 17 17 17 17 17 16 16 16 15 16 17 17 18 18 18 17 17 19 23 23 21 21 20 18 17 17 16 16 17 15 13 12 12
8 14 17 16 19 23 24 22 22 22 22 22 22 25 29 31 28 25 21 16 17 22 24 25 25 23 22 20 18 18 18 17 17 17 18 17 16 16 16 16 16 17 18 18 18 17 16 18 20 22 21 21 21 19 17 16 16 17 17 14 13 13 13
6 12 13 13 19 23 23 23 22 22 22 23 22 23 26 27 23 21 19 16 16 21 24 24 24 23 21 19 18 17 17 17 16 17 17 17 16 17 17 17 16 17 17 17 18 18 16 16 18 20 21 21 20 18 17 16 17 19 16 13 13 13 12
5 10 10 12 19 22 22 23 23 22 22 24 24 22 20 21 22 20 19 18 19 20 21 22 22 21 19 19 18 15 15 16 16 15 16 16 16 17 17 17 16 17 16 16 17 17 16 17 17 16 18 20 20 18 17 17 18 18 17 14 13 11 11
3 5 5 13 22 23 22 23 24 24 24 23 20 16 15 18 21 21 20 21 22 19 18 20 20 18 18 17 16 15 15 16 16 15 15 15 16 17 17 16 16 15 15 16 16 15 15 16 15 13 14 16 18 19 18 17 16 17 16 13 11 11 10
3 3 6 14 19 22 24 25 25 24 21 16 13 12 15 20 23 24 23 21 20 18 17 18 18 18 17 16 15 15 15 15 15 13 13 14 15 16 15 15 14 14 16 16 14 14 15 15 13 12 13 14 16 17 16 15 15 15 14 11 9 10 10
3 2 9 12 13 19 23 24 23 21 18 15 14 14 18 20 20 23 25 22 20 18 16 15 15 16 17 15 13 12 11 12 12 12 12 13 13 13 13 13 13 13 14 14 14 15 14 13 12 12 12 13 14 13 13 13 13 13 11 9 9 10 10
5 1 7 7 11 16 20 21 21 22 18 15 17 18 19 18 19 23 25 22 19 17 16 15 14 15 16 14 12 10 9 10 11 12 12 12 11 11 12 11 11 11 11 12 13 13 12 11 11 10 10 11 11 11 12 12 12 11 9 10 12 13 10
8 3 7 7 10 13 17 19 20 23 20 17 18 19 19 19 20 23 23 20 17 17 17 15 13 13 14 13 12 10 9 9 10 10 10 10 10 10 10 9 8 7 8 10 9 9 8 8 8 8 8 10 10 11 11 11 11 9 8 10 12 11 9
7 6 10 10 11 13 15 17 21 25 23 21 19 20 20 20 20 19 19 18 17 17 17 14 11 11 12 11 10 8 7 8 7 6 6 6 7 7 7 7 7 7 7 7 6 6 7 7 9 9 9 10 11 11 12 12 11 10 10 11 11 9 8
7 8 10 10 11 13 15 16 20 23 21 19 17 18 19 20 19 17 17 18 17 17 15 13 11 11 10 9 8 8 8 7 5 4 4 4 4 5 6 7 7 6 5 6 6 7 7 7 9 9 9 9 11 12 12 12 12 13 12 12 12 10 9
8 9 9 10 11 13 15 15 16 18 18 16 13 14 17 19 19 18 18 18 17 15 14 13 12 11 9 9 9 10 9 8 5 4 4 4 5 6 7 8 9 7 7 7 8 8 8 7 8 8 8 9 10 11 11 10 11 13 13 12 12 11 10
8 8 6 7 9 11 13 14 14 16 17 14 11 11 14 16 17 17 16 16 16 14 13 12 11 11 11 11 11 10 9 8 5 4 4 4 5 6 7 8 8 7 7 8 8 9 8 6 6 6 6 7 7 8 8 8 9 10 11 11 11 11 11
4 6 6 6 7 9 11 13 13 15 17 14 10 9 12 14 15 16 16 15 15 14 13 13 13 13 13 12 11 10 9 8 7 5 5 3 4 6 7 7 7 8 8 8 7 7 6 5 4 3 3 3 5 8 8 8 9 9 9 10 10 11 12
6 2 3 6 7 7 10 12 12 15 17 14 11 10 10 13 15 16 16 15 15 15 15 15 15 15 14 12 11 11 10 9 9 9 8 6 5 7 7 6 7 8 8 8 7 7 7 7 7 7 7 7 5 9 10 10 11 12 12 12 12 12 12
8 8 5 1 6 7 8 11 12 13 16 15 13 12 11 11 13 14 14 12 13 14 14 15 16 15 14 13 12 12 11 11 12 12 11 10 8 7 7 7 7 6 6 8 9 9 9 9 9 10 12 13 9 9 12 12 13 14 15 15 15 15 14
6 4 6 6 4 6 7 9 10 12 15 15 15 14 13 12 12 13 13 11 11 13 13 14 15 15 14 14 13 11 12 14 13 12 11 11 10 9 9 9 8 9 9 9 10 9 8 8 9 9 12 14 11 9 12 12 13 14 15 16 16 15 15
7 2 2 5 4 4 7 7 8 11 13 15 16 15 13 12 12 14 14 12 12 13 13 13 13 13 13 13 12 12 13 14 13 12 12 12 12 13 13 12 11 11 12 11 9 8 7 6 7 8 9 11 11 9 12 12 12 13 14 15 15 13 12
9 5 3 3 3 3 6 8 9 11 12 14 17 16 13 11 13 14 13 11 11 11 11 12 12 12 12 11 12 13 14 13 13 13 12 12 13 13 12 12 13 13 14 12 10 9 8 7 6 4 4 6 9 10 13 14 13 15 16 15 14 11 9
13 10 8 5 2 2 6 8 10 10 11 15 17 16 14 13 14 14 13 11 11 10 10 11 11 10 11 11 11 12 13 13 13 13 13 13 12 12 12 13 14 15 14 11 10 10 11 11 9 8 8 8 9 10 11 14 15 15 15 14 13 10 8
18 15 15 11 4 3 6 7 9 9 10 15 16 15 14 14 13 12 12 12 11 10 10 10 10 10 10 11 11 11 12 12 13 13 12 11 11 14 15 15 15 14 12 11 12 12 12 11 10 10 10 11 10 10 10 12 13 13 13 12 11 8 5
20 19 20 17 10 5 4 5 7 8 8 11 14 13 12 13 13 11 10 10 9 9 9 9 8 9 10 10 9 9 9 10 11 10 9 10 13 14 14 13 13 12 10 9 10 10 8 7 6 6 7 8 7 8 9 10 11 11 11 9 7 4 2
18 19 20 21 18 10 4 3 4 6 6 7 10 11 9 11 13 11 9 8 7 8 8 8 8 9 9 9 8 8 8 7 8 9 10 11 12 11 10 10 10 10 9 7 7 6 6 6 5 5 5 5 4 3 4 7 8 8 7 6 2 0 1
13 15 17 20 20 15 8 5 5 4 4 6 7 9 10 12 13 13 12 12 11 9 8 8 9 9 9 8 8 8 8 7 8 10 11 11 10 10 12 12 10 8 8 8 7 8 8 8 7 6 6 5 5 4 4 5 6 5 4 3 1 0 1
9 9 11 13 16 17 13 10 11 10 7 6 7 9 10 13 14 12 12 14 16 14 11 8 8 8 8 8 8 7 7 8 9 11 11 11 11 12 14 14 11 8 8 7 8 9 9 8 8 7 7 7 6 6 4 4 4 4 3 3 1 1 1
8 5 6 8 11 14 13 12 14 14 10 6 5 7 8 10 12 11 10 12 14 16 15 11 8 7 6 7 7 7 8 8 9 10 10 11 12 12 12 11 9 8 8 8 7 7 7 6 6 6 7 7 6 6 5 5 5 4 3 2 2 3 2
8 4 5 6 7 11 12 12 13 14 12 9 4 3 5 7 9 11 11 10 12 14 15 13 9 8 7 7 8 9 9 10 10 10 11 11 10 9 10 9 9 9 9 8 8 7 6 7 8 7 8 7 6 5 6 5 5 4 2 0 1 2 2
8 6 7 8 4 5 9 11 12 13 14 13 8 3 5 6 8 10 12 11 11 12 13 13 11 9 8 8 8 9 9 10 10 10 11 10 10 9 10 10 10 10 9 7 9 9 8 8 7 5 6 6 6 4 4 4 3 3 2 1 1 1 1
8 7 8 10 10 8 5 7 9 11 13 15 13 7 6 7 9 11 13 14 14 13 13 13 12 11 10 9 8 8 9 9 9 10 10 10 10 11 13 13 10 10 12 11 11 10 9 7 7 4 5 6 7 6 4 4 4 3 3 3 2 2 2
8 8 8 9 12 13 10 5 1 6 9 12 13 12 8 7 9 13 15 15 16 15 14 13 12 12 12 11 10 9 8 8 9 10 11 10 10 13 16 17 14 14 15 15 13 11 11 10 9 8 9 9 9 8 5 5 5 5 3 3 3 2 2
8 8 8 10 11 11 11 10 8 4 0 4 7 9 8 7 6 10 14 14 14 15 15 14 14 14 14 12 12 12 12 11 9 10 12 12 11 14 17 19 18 18 18 16 14 13 13 13 13 12 12 12 10 7 6 6 6 5 3 3 2 2 3
9 10 10 10 10 9 8 9 10 10 8 4 3 5 4 5 4 5 10 12 13 15 17 16 16 16 14 12 12 13 14 14 11 11 13 13 13 16 20 21 20 21 21 19 17 15 14 15 14 14 14 13 10 8 8 7 5 4 3 3 3 3 5
Wind_Direction
182 188 191 189 192 200 202 204 207 206 208 207 204 207 211 208 209 213 213 210 210 211 211 210 212 213 206 205 212 218 221 223 225 229 231 233 234 233 233 236 238 238 233 228 227 230 232 236 237 237 243 243 243 247 248 248 254 258 257 254 258 264 264
177 184 182 184 190 196 199 208 211 210 211 209 204 207 212 213 213 215 217 216 215 216 216 214 217 218 209 207 217 221 221 224 226 227 230 233 234 235 235 237 238 239 236 233 235 236 234 233 235 242 247 247 247 253 252 252 259 266 263 259 260 262 262
175 180 177 180 188 193 199 210 212 210 212 211 208 210 215 216 215 216 220 222 221 223 222 219 220 221 215 211 218 222 222 225 225 227 231 234 235 236 236 238 239 241 241 240 240 242 241 235 228 230 239 242 245 253 256 255 259 263 259 258 262 263 261
178 173 173 184 192 194 196 202 203 205 210 211 212 216 218 217 212 209 217 222 225 231 232 228 225 224 221 216 218 222 223 225 225 229 234 236 238 241 241 241 240 241 244 244 243 243 244 240 230 229 237 239 240 246 253 256 256 258 259 263 270 270 265
176 166 175 185 190 194 196 196 196 199 204 205 209 216 215 212 203 200 211 217 223 234 238 234 228 223 220 217 217 222 225 227 229 233 237 239 243 244 244 246 245 245 246 244 243 241 241 241 235 233 235 237 243 245 247 256 259 258 261 264 269 271 268
183 169 177 181 183 193 197 199 199 197 201 204 210 219 214 204 199 204 214 217 219 227 231 229 223 215 213 214 217 222 226 228 231 237 241 241 244 245 248 251 250 248 243 239 240 240 238 239 237 238 238 238 247 249 244 249 254 256 259 260 262 268 271
177 160 164 172 180 190 194 200 201 198 203 205 211 220 215 206 207 212 215 215 215 218 218 217 216 210 209 213 218 223 226 228 230 236 242 244 246 250 253 257 254 249 243 239 242 244 242 239 237 239 242 244 253 257 250 248 249 255 260 260 260 267 275
152 150 156 169 175 187 198 200 197 197 201 200 203 212 212 211 213 212 210 214 217 215 210 211 217 215 213 216 219 221 226 230 230 234 241 247 253 257 260 260 257 251 248 247 247 243 240 239 236 235 238 246 254 256 252 249 247 252 256 256 261 270 278
127 155 173 190 182 184 198 203 199 198 197 195 198 204 207 207 202 197 202 213 218 213 207 209 215 216 216 220 220 220 225 231 235 236 240 247 255 260 261 261 257 253 251 249 245 241 239 241 240 234 233 240 245 247 248 247 245 249 251 250 260 270 274
92 150 173 218 204 186 190 198 199 195 194 199 202 197 191 186 183 191 203 207 210 210 204 204 209 211 216 220 219 218 223 230 234 234 237 247 255 260 261 259 255 251 248 245 244 245 246 247 246 237 233 236 238 242 249 248 245 249 251 250 258 268 272
72 138 170 230 216 195 189 190 190 191 195 199 195 176 163 172 185 196 198 196 202 205 199 200 203 206 213 217 215 216 222 228 231 234 241 249 254 258 258 253 250 248 245 242 244 248 249 248 247 240 236 239 239 239 245 248 247 245 245 249 261 272 278
58 121 218 231 207 188 186 186 185 189 186 173 156 155 177 192 198 197 194 198 206 208 206 205 201 201 206 211 212 216 222 227 230 237 245 250 252 254 253 251 250 249 247 245 248 252 249 244 240 236 234 234 233 235 239 244 247 245 245 253 269 272 274
69 178 229 219 180 165 172 179 176 167 155 143 147 176 199 206 203 197 199 206 208 205 204 198 192 197 204 205 206 213 223 231 237 243 245 247 251 252 250 249 247 247 250 252 252 251 244 235 231 227 224 223 225 230 233 236 243 248 250 259 272 272 271
87 239 245 197 162 161 166 170 162 150 148 155 167 186 198 200 197 196 199 204 202 200 198 189 185 195 202 199 195 205 217 221 228 233 237 245 251 248 246 245 242 245 248 243 242 242 234 225 224 219 216 222 227 230 233 239 248 253 256 268 274 274 273
91 128 235 194 165 169 167 164 150 146 159 174 180 190 193 191 192 193 196 198 196 197 199 195 191 193 199 196 190 198 205 204 213 225 234 246 249 238 233 228 220 223 226 222 231 246 237 216 210 212 219 226 223 225 232 240 248 251 255 264 269 269 268
119 173 217 196 174 172 168 163 148 145 160 176 188 196 190 184 187 190 192 191 189 194 199 199 195 192 196 197 191 195 198 195 207 222 227 237 238 222 211 206 200 199 202 205 219 241 236 211 203 209 221 223 216 221 234 242 247 250 252 257 260 263 267
162 202 213 194 180 169 161 159 147 145 161 178 190 195 185 180 182 183 185 187 189 196 197 194 195 196 194 193 189 187 184 180 184 191 196 208 208 189 175 178 188 194 193 191 203 219 223 218 215 216 222 224 218 222 231 238 243 246 248 253 257 261 267
186 204 203 189 181 165 156 157 149 149 165 180 188 188 180 177 180 181 185 190 193 197 199 197 197 194 185 181 179 175 169 166 166 167 172 176 172 169 170 171 172 180 192 194 199 209 213 218 223 223 227 229 226 228 232 239 245 248 250 254 259 264 266
190 192 190 183 178 164 152 150 148 149 161 179 188 178 172 173 175 177 181 188 191 194 197 196 190 183 178 175 173 168 162 160 162 166 173 167 159 165 179 181 173 175 186 183 182 189 190 189 195 209 229 238 241 245 248 253 255 255 256 256 258 260 258
218 192 183 176 169 164 152 145 144 145 156 178 190 172 164 163 162 166 171 177 183 185 184 181 177 174 173 169 167 166 162 162 169 181 187 180 155 154 168 174 163 160 162 158 165 175 165 154 166 206 248 265 271 270 269 272 271 266 262 259 256 256 256
334 337 186 177 165 160 150 145 147 148 154 173 187 179 167 158 158 164 166 168 172 173 172 172 169 167 166 166 171 173 170 175 186 189 184 177 162 153 153 151 147 153 158 162 175 183 176 183 200 214 206 192 224 268 272 276 278 274 270 266 263 264 263
332 349 360 116 162 162 149 144 148 150 153 166 181 185 180 169 166 167 166 166 168 167 166 166 166 166 168 174 180 179 180 189 195 193 185 177 165 155 156 158 162 179 192 191 199 204 202 203 207 216 214 201 205 251 262 264 271 273 273 271 269 271 268
330 343 14 33 104 145 142 142 149 154 155 162 175 184 189 186 177 168 167 170 169 168 168 168 169 174 177 181 186 185 188 192 193 191 186 178 172 172 181 191 197 206 212 209 206 206 205 201 194 203 214 205 201 234 253 256 263 268 271 274 273 272 268
7 41 55 28 40 113 130 142 156 159 159 163 172 182 193 196 185 175 172 173 174 176 175 172 175 179 183 192 198 194 190 189 188 188 186 182 184 188 194 202 205 208 215 209 192 186 192 195 195 203 205 190 185 219 247 253 259 265 271 277 279 278 272
18 23 40 35 37 102 127 145 153 154 161 168 172 180 192 194 188 185 180 173 176 179 175 175 182 186 188 198 201 191 186 186 188 189 189 189 192 193 197 202 205 215 222 206 176 174 189 186 186 209 209 181 181 208 234 244 253 263 273 281 286 292 287
18 18 23 24 25 120 132 142 143 149 169 176 174 179 184 182 183 189 186 176 177 181 183 189 196 196 195 196 194 188 186 187 190 192 193 193 195 196 199 204 211 221 222 196 167 180 197 187 179 191 206 213 210 209 225 243 252 261 273 283 292 298 293
20 24 24 19 21 123 134 139 139 147 171 179 179 178 174 171 174 180 180 177 180 188 197 206 207 204 202 201 199 196 193 195 200 200 196 196 198 202 207 214 221 224 214 189 179 191 203 196 188 193 205 219 220 211 224 249 260 266 278 291 300 303 293
17 20 22 22 29 65 113 133 139 147 162 175 178 173 168 171 173 169 167 170 176 189 201 208 210 212 214 214 212 207 203 204 207 205 202 203 207 212 219 224 227 225 216 200 189 191 201 201 195 201 215 227 225 211 222 250 265 274 286 300 311 313 300
11 14 19 23 26 33 60 113 134 153 155 160 170 170 169 173 168 156 154 162 173 189 200 203 209 217 220 218 215 214 216 217 212 209 217 221 220 224 231 230 222 216 213 207 192 187 197 199 197 210 224 240 248 227 233 266 280 286 298 314 328 47 292
6 10 15 17 22 32 55 86 91 109 124 135 157 169 175 178 169 155 154 162 170 182 194 204 210 214 217 216 214 213 216 220 216 216 227 235 227 221 228 231 224 213 209 204 197 199 205 200 196 202 209 222 237 236 243 275 291 298 306 317 331 158 283
351 3 11 12 22 34 46 62 64 59 67 96 128 145 162 177 180 174 170 169 168 172 180 195 209 212 214 216 216 214 213 219 223 223 232 240 234 227 233 239 236 227 222 217 208 207 207 198 189 192 202 213 219 220 230 253 272 288 302 300 274 213 219
332 352 8 12 29 39 41 49 57 55 51 63 101 118 131 154 169 176 181 180 177 172 170 174 194 207 210 216 221 217 213 219 226 228 233 243 245 240 239 241 241 239 237 232 222 209 195 189 191 192 202 215 218 224 242 250 247 257 286 291 225 190 181
325 325 323 344 29 47 43 42 48 52 51 49 67 119 117 128 155 173 179 181 187 183 171 163 176 197 200 209 221 221 217 219 223 224 227 234 240 241 241 240 242 246 245 233 227 223 201 197 206 201 197 212 229 239 249 250 237 236 251 274 169 161 144
317 312 300 300 320 31 43 43 44 48 53 55 61 124 154 134 145 172 181 180 187 196 185 169 169 185 195 199 212 223 226 227 229 231 231 233 233 236 244 245 241 250 258 241 224 230 224 211 219 213 190 209 244 253 237 230 228 229 222 190 155 154 144
312 308 300 293 287 296 340 38 51 54 58 61 66 96 161 163 155 164 176 183 193 204 202 187 178 182 190 192 198 215 230 238 242 241 241 244 243 237 242 246 237 236 249 244 229 230 228 215 222 222 190 215 256 265 236 209 217 230 233 224 217 209 205
310 304 298 295 292 293 294 294 49 73 72 71 75 88 112 146 168 175 179 188 198 203 206 208 201 188 185 190 193 199 214 230 244 250 249 249 249 245 246 249 240 230 238 245 241 234 227 220 221 215 198 209 235 246 235 227 234 246 249 222 204 206 223
303 302 297 297 298 298 292 275 260 254 51 77 86 94 102 114 151 183 189 190 196 201 204 214 217 203 194 202 204 200 205 211 220 241 250 247 245 251 255 255 249 242 244 250 249 240 232 229 229 224 218 221 232 245 256 254 246 243 230 197 197 212 198
292 293 294 297 298 295 291 280 267 262 261 242 131 121 157 175 173 198 198 187 186 197 204 212 220 217 215 224 223 216 218 217 206 218 243 247 243 251 262 265 260 254 253 255 254 248 239 234 230 227 229 236 242 253 265 264 244 223 202 185 188 186 169
Height
1474 1477 1479 1482 1483 1484 1486 1488 1491 1494 1496 1498 1500 1502 1504 1506 1507 1509 1510 1513 1515 1517 1519 1521 1523 1525 1527 1529 1530 1530 1531 1532 1533 1535 1536 1537 1538 1540 1540 1541 1541 1541 1542 1542 1543 1544 1546 1547 1547 1548 1550 1553 1554 1553 1554 1554 1554 1555 1556 1556 1556 1557 1558
1472 1475 1476 1479 1482 1484 1485 1486 1489 1492 1494 1496 1499 1500 1502 1504 1506 1508 1509 1512 1514 1516 1518 1520 1522 1525 1526 1527 1527 1528 1529 1531 1532 1533 1535 1536 1537 1538 1539 1539 1539 1539 1540 1541 1542 1543 1544 1545 1545 1546 1548 1551 1552 1552 1553 1553 1553 1554 1554 1555 1555 1556 1556
1472 1474 1475 1478 1480 1482 1484 1485 1488 1491 1493 1495 1497 1499 1500 1502 1505 1507 1509 1511 1514 1515 1518 1520 1522 1524 1526 1526 1527 1528 1529 1530 1531 1532 1533 1534 1535 1536 1537 1538 1538 1538 1539 1540 1541 1542 1543 1544 1545 1545 1547 1549 1551 1552 1552 1552 1552 1553 1553 1553 1554 1554 1554
1472 1472 1474 1477 1478 1481 1483 1484 1487 1490 1492 1494 1495 1496 1498 1501 1504 1507 1509 1511 1514 1516 1518 1520 1521 1523 1525 1526 1526 1527 1527 1529 1530 1531 1532 1532 1533 1535 1535 1536 1536 1537 1538 1539 1540 1540 1541 1543 1543 1543 1545 1548 1550 1551 1551 1551 1551 1552 1552 1552 1552 1552 1552
1471 1471 1473 1476 1478 1480 1481 1482 1486 1488 1491 1493 1494 1495 1498 1501 1504 1507 1509 1510 1513 1517 1519 1521 1522 1523 1525 1526 1526 1526 1526 1527 1528 1529 1530 1531 1531 1532 1533 1534 1535 1535 1536 1537 1538 1538 1539 1540 1541 1541 1543 1545 1548 1549 1550 1551 1551 1550 1550 1549 1549 1550 1550
1469 1470 1472 1474 1477 1479 1480 1482 1484 1486 1489 1491 1493 1494 1497 1501 1503 1504 1507 1509 1512 1516 1517 1519 1521 1522 1524 1525 1525 1524 1525 1526 1526 1527 1528 1529 1530 1530 1531 1532 1532 1533 1534 1535 1536 1536 1537 1538 1539 1540 1541 1543 1546 1547 1548 1549 1549 1549 1548 1547 1547 1548 1548
1469 1468 1470 1473 1476 1478 1479 1481 1483 1484 1487 1489 1492 1494 1496 1499 1500 1502 1506 1509 1511 1513 1513 1514 1517 1520 1522 1522 1523 1523 1523 1524 1524 1525 1526 1527 1528 1528 1529 1530 1530 1531 1532 1533 1534 1534 1535 1536 1537 1538 1539 1541 1544 1545 1547 1548 1547 1547 1545 1545 1545 1546 1547
1469 1469 1471 1473 1475 1476 1477 1479 1482 1483 1485 1488 1491 1492 1493 1496 1499 1502 1506 1508 1509 1510 1511 1512 1515 1518 1519 1520 1521 1521 1521 1522 1523 1524 1524 1525 1526 1526 1527 1528 1528 1529 1530 1531 1532 1532 1533 1534 1535 1536 1537 1539 1542 1543 1545 1545 1545 1545 1544 1544 1544 1544 1545
1469 1469 1471 1473 1474 1475 1476 1478 1480 1482 1484 1486 1488 1490 1493 1496 1499 1503 1504 1504 1506 1508 1510 1512 1514 1516 1517 1518 1519 1520 1520 1520 1521 1523 1523 1523 1524 1524 1525 1526 1527 1528 1528 1529 1530 1531 1532 1533 1533 1534 1535 1537 1539 1540 1541 1542 1543 1543 1543 1542 1542 1542 1542
1470 1471 1471 1474 1476 1476 1476 1477 1479 1481 1483 1485 1488 1491 1493 1496 1499 1501 1501 1502 1505 1507 1509 1511 1513 1515 1516 1516 1517 1518 1518 1519 1520 1521 1521 1521 1522 1523 1524 1525 1526 1527 1527 1528 1529 1530 1530 1531 1532 1532 1532 1533 1535 1537 1539 1540 1541 1541 1541 1540 1540 1539 1539
1470 1471 1473 1476 1476 1475 1475 1477 1479 1481 1484 1487 1490 1492 1494 1497 1498 1498 1499 1502 1504 1505 1507 1509 1511 1512 1513 1513 1515 1515 1516 1517 1518 1519 1519 1520 1520 1521 1522 1523 1524 1525 1526 1527 1528 1528 1529 1530 1530 1530 1529 1531 1534 1536 1538 1539 1539 1539 1539 1539 1539 1538 1537
1468 1470 1474 1476 1475 1473 1474 1477 1479 1483 1487 1489 1493 1495 1494 1494 1494 1496 1500 1502 1502 1503 1504 1506 1508 1509 1510 1511 1512 1513 1514 1515 1516 1517 1517 1518 1519 1519 1520 1521 1522 1524 1525 1526 1527 1527 1528 1528 1528 1528 1529 1531 1534 1536 1537 1537 1537 1538 1538 1538 1538 1537 1537
1467 1470 1474 1475 1473 1473 1475 1477 1481 1485 1488 1491 1494 1494 1490 1488 1491 1496 1499 1499 1499 1501 1502 1503 1505 1506 1507 1508 1510 1511 1512 1513 1514 1515 1515 1516 1517 1517 1518 1519 1521 1522 1524 1524 1525 1526 1527 1527 1527 1528 1529 1531 1533 1535 1535 1535 1536 1536 1536 1536 1536 1536 1535
1469 1472 1476 1475 1474 1475 1476 1479 1482 1485 1488 1491 1491 1488 1486 1488 1491 1494 1495 1496 1498 1499 1500 1501 1502 1503 1504 1506 1507 1509 1510 1512 1513 1514 1515 1515 1514 1515 1516 1517 1518 1520 1521 1522 1524 1525 1526 1527 1527 1528 1529 1530 1531 1533 1533 1533 1534 1534 1534 1534 1534 1534 1534
1470 1474 1478 1477 1477 1477 1477 1480 1483 1486 1489 1490 1487 1484 1485 1488 1490 1492 1494 1495 1496 1497 1497 1499 1500 1501 1502 1504 1506 1507 1509 1511 1512 1513 1513 1512 1512 1513 1514 1516 1516 1516 1518 1521 1523 1526 1528 1528 1528 1528 1528 1529 1529 1531 1532 1532 1531 1531 1531 1532 1533 1533 1532
1470 1473 1477 1476 1475 1477 1478 1480 1484 1487 1489 1487 1484 1483 1486 1489 1490 1491 1493 1493 1494 1495 1495 1497 1498 1499 1501 1502 1504 1506 1507 1509 1510 1510 1510 1510 1510 1512 1514 1516 1515 1514 1516 1518 1522 1527 1529 1529 1528 1528 1527 1527 1528 1529 1530 1530 1530 1530 1530 1532 1532 1531 1531
1471 1472 1475 1475 1475 1475 1476 1479 1482 1486 1487 1484 1482 1483 1486 1489 1490 1490 1491 1492 1493 1494 1494 1496 1497 1497 1499 1501 1502 1504 1505 1506 1507 1508 1508 1509 1510 1511 1513 1516 1515 1514 1514 1516 1520 1525 1527 1527 1527 1526 1526 1526 1527 1528 1528 1528 1529 1529 1530 1530 1530 1530 1530
1472 1472 1474 1475 1476 1475 1476 1478 1480 1484 1485 1483 1482 1483 1486 1488 1488 1489 1490 1490 1492 1493 1494 1495 1495 1497 1498 1499 1501 1503 1504 1505 1505 1506 1507 1508 1510 1511 1513 1514 1515 1515 1516 1517 1520 1523 1525 1526 1526 1525 1525 1526 1526 1527 1527 1527 1528 1528 1528 1529 1528 1528 1528
1472 1473 1474 1476 1477 1477 1477 1478 1479 1482 1483 1483 1482 1484 1486 1487 1487 1487 1488 1489 1491 1492 1493 1494 1495 1496 1497 1498 1500 1502 1503 1503 1504 1505 1506 1508 1509 1511 1512 1513 1515 1516 1517 1519 1521 1523 1525 1525 1526 1525 1525 1525 1525 1524 1524 1525 1525 1526 1526 1526 1526 1526 1526
1473 1473 1474 1476 1477 1477 1478 1479 1480 1482 1483 1483 1483 1484 1486 1487 1487 1487 1488 1489 1490 1491 1492 1494 1495 1496 1497 1498 1500 1501 1502 1503 1503 1504 1505 1507 1508 1510 1511 1512 1514 1516 1517 1519 1520 1522 1524 1525 1526 1526 1526 1525 1523 1522 1522 1523 1524 1524 1524 1524 1524 1524 1524
1474 1473 1474 1476 1476 1477 1478 1479 1480 1481 1483 1484 1483 1484 1485 1487 1487 1488 1488 1489 1490 1491 1493 1494 1495 1496 1497 1498 1499 1500 1501 1502 1503 1504 1505 1506 1508 1509 1510 1511 1513 1515 1516 1518 1519 1521 1523 1524 1525 1525 1525 1525 1523 1521 1521 1522 1522 1522 1522 1522 1522 1522 1522
1474 1474 1474 1475 1476 1477 1478 1479 1480 1481 1482 1484 1485 1485 1485 1486 1487 1488 1489 1490 1491 1492 1493 1494 1495 1496 1497 1498 1499 1500 1501 1502 1503 1504 1505 1507 1508 1509 1510 1511 1512 1514 1515 1517 1518 1520 1521 1522 1523 1523 1523 1523 1523 1521 1521 1521 1520 1520 1520 1519 1519 1519 1519
1476 1476 1475 1476 1477 1477 1478 1480 1481 1481 1483 1485 1486 1486 1485 1486 1488 1488 1489 1491 1491 1492 1494 1495 1495 1496 1497 1498 1499 1500 1501 1503 1504 1505 1506 1507 1508 1510 1511 1511 1512 1513 1514 1515 1516 1518 1519 1520 1521 1521 1520 1520 1521 1519 1518 1518 1518 1517 1517 1516 1516 1516 1515
1478 1477 1476 1476 1477 1477 1478 1480 1481 1482 1483 1484 1486 1487 1486 1487 1488 1489 1490 1492 1492 1494 1495 1496 1497 1498 1499 1499 1500 1501 1502 1503 1504 1505 1506 1507 1508 1509 1510 1510 1511 1511 1512 1513 1514 1516 1517 1518 1518 1518 1517 1517 1518 1517 1515 1515 1515 1514 1514 1514 1513 1513 1513
1479 1479 1477 1477 1477 1477 1478 1480 1480 1482 1484 1485 1486 1486 1486 1486 1487 1489 1491 1492 1494 1495 1496 1497 1499 1499 1500 1501 1501 1502 1503 1504 1505 1505 1506 1507 1508 1508 1509 1510 1510 1510 1511 1512 1513 1514 1515 1515 1516 1516 1515 1514 1515 1514 1512 1512 1512 1511 1511 1511 1511 1511 1510
1480 1479 1478 1477 1477 1476 1477 1478 1480 1482 1483 1485 1486 1487 1487 1487 1486 1488 1490 1492 1495 1496 1497 1499 1500 1500 1501 1502 1502 1503 1504 1504 1505 1505 1506 1507 1507 1508 1509 1509 1509 1509 1510 1511 1512 1512 1513 1513 1513 1513 1512 1512 1512 1511 1510 1509 1509 1509 1509 1509 1508 1508 1508
1484 1482 1480 1479 1477 1476 1477 1478 1479 1481 1483 1485 1487 1488 1489 1489 1489 1490 1491 1493 1496 1498 1499 1500 1501 1501 1503 1503 1504 1505 1505 1506 1506 1507 1507 1508 1509 1509 1509 1509 1509 1509 1509 1510 1510 1510 1510 1510 1510 1510 1510 1509 1509 1509 1509 1507 1507 1507 1507 1506 1506 1505 1505
1487 1485 1483 1480 1478 1478 1479 1479 1480 1482 1483 1485 1487 1489 1490 1491 1492 1492 1494 1495 1497 1499 1501 1502 1503 1503 1504 1505 1506 1507 1508 1509 1509 1510 1511 1511 1511 1510 1510 1510 1510 1510 1509 1510 1509 1509 1509 1509 1509 1508 1508 1507 1507 1508 1507 1506 1505 1506 1505 1505 1504 1504 1504
1489 1487 1485 1482 1480 1479 1479 1480 1482 1483 1484 1486 1488 1490 1491 1492 1493 1494 1496 1498 1500 1501 1502 1503 1505 1506 1506 1507 1508 1509 1511 1512 1512 1513 1514 1513 1513 1513 1512 1511 1510 1510 1509 1509 1509 1509 1508 1508 1508 1507 1507 1506 1506 1506 1506 1505 1504 1504 1504 1503 1503 1503 1503
1489 1489 1487 1485 1484 1482 1480 1481 1482 1484 1485 1487 1488 1489 1490 1491 1492 1494 1495 1496 1498 1500 1502 1504 1506 1508 1509 1510 1511 1512 1513 1514 1514 1515 1515 1514 1514 1513 1512 1511 1510 1509 1508 1507 1507 1507 1507 1506 1506 1506 1506 1505 1505 1505 1505 1504 1503 1503 1503 1502 1502 1503 1503
1490 1490 1489 1488 1487 1485 1483 1483 1483 1484 1484 1484 1485 1486 1488 1489 1491 1491 1491 1492 1493 1495 1499 1503 1506 1508 1510 1511 1512 1512 1513 1514 1514 1515 1514 1514 1514 1513 1512 1511 1510 1508 1507 1507 1506 1506 1505 1505 1505 1505 1505 1504 1504 1503 1503 1503 1503 1502 1502 1502 1502 1502 1502
1491 1490 1490 1489 1488 1487 1487 1487 1485 1484 1484 1483 1484 1485 1487 1489 1490 1490 1491 1492 1493 1493 1495 1498 1503 1506 1509 1511 1512 1512 1513 1513 1514 1514 1514 1513 1513 1512 1512 1512 1510 1509 1508 1507 1506 1506 1505 1505 1505 1505 1505 1504 1503 1503 1502 1502 1502 1501 1501 1501 1501 1501 1502
1491 1489 1489 1489 1488 1488 1488 1488 1487 1486 1485 1484 1485 1486 1488 1489 1490 1491 1491 1493 1494 1495 1495 1496 1499 1503 1506 1508 1510 1511 1512 1513 1513 1513 1513 1513 1513 1513 1512 1512 1511 1511 1510 1509 1508 1507 1506 1506 1505 1504 1504 1503 1503 1502 1502 1501 1501 1500 1500 1501 1501 1501 1501
1490 1489 1488 1487 1487 1487 1487 1488 1488 1487 1485 1485 1485 1486 1488 1489 1490 1491 1492 1492 1493 1495 1496 1496 1497 1499 1501 1504 1507 1509 1511 1512 1513 1513 1513 1513 1513 1513 1512 1512 1511 1511 1510 1510 1509 1508 1507 1506 1505 1504 1503 1503 1502 1501 1501 1501 1500 1500 1500 1500 1500 1500 1501
1489 1488 1487 1486 1486 1486 1487 1488 1488 1487 1486 1485 1485 1485 1486 1486 1487 1488 1489 1490 1491 1493 1495 1496 1497 1497 1499 1501 1503 1506 1509 1511 1512 1513 1514 1513 1513 1512 1511 1511 1511 1511 1510 1510 1510 1509 1508 1507 1506 1505 1504 1503 1502 1501 1501 1500 1500 1500 1500 1500 1500 1501 1501
1488 1488 1486 1485 1485 1485 1485 1487 1487 1486 1486 1485 1485 1484 1484 1484 1485 1485 1486 1487 1488 1490 1493 1495 1496 1497 1498 1498 1499 1502 1505 1507 1510 1511 1512 1513 1513 1512 1511 1510 1510 1510 1509 1509 1509 1509 1508 1507 1506 1505 1504 1503 1502 1501 1501 1500 1500 1500 1500 1500 1500 1500 1500
1487 1486 1485 1485 1484 1483 1484 1485 1485 1485 1485 1485 1484 1484 1483 1484 1485 1484 1484 1485 1486 1488 1491 1493 1495 1497 1497 1496 1497 1498 1500 1502 1505 1507 1509 1511 1512 1512 1510 1509 1510 1509 1509 1508 1508 1508 1508 1507 1506 1506 1504 1503 1502 1501 1501 1500 1500 1500 1499 1499 1500 1500 1500
1486 1485 1485 1484 1483 1483 1483 1483 1483 1483 1484 1484 1484 1484 1483 1484 1485 1484 1483 1483 1484 1485 1487 1490 1493 1496 1497 1496 1496 1496 1497 1498 1500 1502 1504 1506 1509 1509 1508 1508 1508 1508 1507 1507 1507 1507 1506 1506 1505 1505 1504 1503 1502 1502 1501 1500 1499 1499 1499 1499 1499 1499 1499